STARLINK-11513, 62589

Orbit data source: Space-Track

STARLINK-11513, 62589 is a payload satellite owned by SpaceX/Seattle (US) in LEO that was launched on Mon, 13 Jan 2025 UTC via an FALCON 9 launch vehicle from the Air Force Eastern Test Range (AFETR). Payload-class satellites include a variety of spacecraft equipped with specific instruments for various scientific and technological missions. These include communications satellites like Starlink; space stations such as the ISS; scientific satellites like the Hubble; Earth observation satellites from companies like Planet Labs, Umbra, and HawkEye 360; GPS; miniature CubeSats for education and research; and military/defense satellites.

Loading next visibility...
Identifier
62589, 2025-008C
Orbit
LEO
Last TLE update
20 hours ago
Origin
Manufacturer
SpaceX/Seattle
Mission
Operational Commercial Communications
Bus & Motor
STARLINK V2M, Unknown motor
Mass
730 kg wet, ~700 kg dry
Launch date (UTC)
2025-01-13 (4 months ago)
Launch vehicle
FALCON 9
Launch site
Air Force Eastern Test Range (AFETR)
Object type
Payload
Rocket body
Debris
Shape & HBR
Box + 2 Pan, 29 m
Radar Cross Section
36.964 m², Large (>1 m²)

Expand to show TLE details & history

TLE from 20 hours ago
0 STARLINK-11513
1 62589U 25008C   25128.42737558  .00000513  00000-0  74938-5 0  9999
2 62589  43.0011 166.2566 0001572 292.0092  68.0608 15.70830552 18106
Epoch: 2025-05-08T10:15Z
Definitive object data (Epoch: 2025-05-08T10:15:25.25Z)
Latitude
-0.00004°
Longitude
145.90332°
Altitude
355.898 km
Speed
7.698 km/s
True Right ascension
11h 05m 01s
True Declination
0° 00' 00"
Sunlit
Object was in full shadow at TLE epoch
Visualization TLE readout
Latitude
23.85745°
Longitude
169.0167°
Altitude
356.383 km
Speed
7.699 km/s
Apparent Right ascension
09h 13m 55s
Apparent Declination
-25° 46' 34"
Sunlit
Object is in full shadow
Visualization observer readout
Local Sidereal Time
14:23:41
Azimuth
242.418° WSW
Elevation
-7.404°
Doppler factor
1
Orbital elements
Apogee altitude
359.562 km
Perigee altitude
357.444 km
Semi-major axis
6,736.64 km
Eccentricity
0.0001572
Inclination
43.0011°
RAAN
166.2566°
Arg. of periapsis
292.0092°
True anomaly
68.07751°
Mean anomaly
68.0608°
Eccentric anomaly
68.06916°
Mean motion
3.92535 °/min
BSTAR
0.0000074938
Orbital period
91.71 mins
Loading maneuver chart data...
Loading SW <> Apogee altitude chart data...
Loading historical data...
Loading historical data...
Loading historical data...
Loading historical data...
Loading historical data...
Loading historical data...
Loading historical data...

STARLINK-11513 Visibility forecast

Observer location: undefined°, undefined°

Span
Click to sort rows by Start time (UTC) header in descending order
Start Az.
Max El. time (UTC)
Max El. Az.
Max El.
End time (UTC)
End Az.
5 mins2025-05-09 06:19:53.273Z234.763° WSW2025-05-09 06:21:53.273Z190.365° SSW38.917°2025-05-09 06:24:53.273Z77.358° E
4 mins2025-05-09 07:56:53.273Z289.832° WNW2025-05-09 07:57:53.273Z320.151° NNW33.415°2025-05-09 08:00:53.273Z67.636° E
4 mins2025-05-09 09:32:53.273Z297.313° NW2025-05-09 09:34:53.273Z27.952° NE39.133°2025-05-09 09:36:53.273Z87.437° E
|